Etusivu
METAR-TAF:

METAR-TAF

Lentoasemat :

El Bayadh, Algeria

Leveyspiiri: 33-43-15N, Pituuspiiri: 1-05-29E, korkeus merenpinnasta: 1366 m

Tämänhetkinen sää

Tämä raportti tehtiin 1 tunti ja 8 minuuttia sitten, kello 22.00 UTC
Tuuli 6 kn pohjoisesta/koillisesta
Lämpötila 23°C
Kosteus 22%
Ilmanpaine 1024 hPa
Näkyvyys 10 km tai enemmän
ei pilviä alle 1500 m:ssä eikä cumulonimbus-pilviä

METAR: DAOY 052200Z 03006KT CAVOK 23/00 Q1024

Aika: 00:08 (23:08 UTC)


TAF: puuttuu

Säähavainnot ja -ennusteet yli 4000 lentoasemalta (METAR- ja TAF-raportit).

Käytössä olevat sääasemat on merkitty karttaan keltaisilla ja punaisilla pisteillä.

Aseta hiiri pisteen päälle nähdäksesi sääaseman nimen.

Klikkaa sitten nähdäksesi säähavainnot ja -ennusteet.

Kartan vaihtaminen: klikkaa mustalla rastilla varustettuja vihreitä pisteitä, niin voit zoomata sisään; viivalla varustettua vihreää pistettä, niin voit zoomata ulos tai vihreitä nuolia, niin pääset viereisille kartoille.


METAR-TAF: